BEIDOU-3 M6 (43208 NORAD) Tracking and Keplerian Element Data

This shows tracking and keplerian element data for the satellite.

Feedback or suggestion? Click here.




ElementValue
Catalog43208
NameBEIDOU-3 M6
Epoch Orbit53
Epoch Day72.06536221
Epoch Year2018
RAAN164.181
Inclination54.9862
Eccentricity0.0008441
Argument of Perigee286.5521
Mean Anonmoly73.3729
Mean Motion1.86231869
Decay Rate-3.4E-07
L11 43208U 18018B 18072.06536221 -.00000034 00000-0 00000+0 0 9995
L22 43208 54.9862 164.1810 0008441 286.5521 73.3729 1.86231869 533

Live tracking and technical data element details for BEIDOU-3 M6 (NORAD 43208). BEIDOU-3 M6 can be tracked NOW for your location showing map with azimuth and elevation plus other details from your city location.

Track the satellite on the map from your city or location and see movement details for azimuth, elevation, latitude, longitude, range, height, and movement on the map or in text.







IsCatalogInMostPopularTable: catalog: 43208, numindb: 172
Update: records affected: 1



GetName: 43208 BEIDOU-3 M6

Hit Count: updated at: Fri, 16 Nov 2018 02:54:16 GMT